Погода в Злоценце

Польша     53°31′50″N   16°00′24″E
темп.,
°C
ветер,
м/с
пор.,
м/с
влажн.,
%
обл.,
%
осадки,
мм/ч
давл.,
гПа
погр.,
м
2 марта, вт
вт201:00+2з35950 0.0 1034119
04:00+1з36950 0.0 1033138
07:000з35950 0.0 1033133
10:00+5зсз35770 0.0 1034283
13:00+9зсз35610 0.0 1034392
16:00+8зсз35600 0.0 1033427
19:00+4ссз23810 0.0 103346
22:00+2ссз11820 0.0 103322
3 марта, ср
ср301:00+1юз11790 0.0 103322
04:00+1юз12750 0.0 103122
07:00+1ююз22760 0.0 103022
10:00+6ююз24620 0.0 1028213
13:00+10юз35600 0.0 1026427
16:00+10юз47610 0.0 1023538
19:00+6зюз310850 0.0 1021237
22:00+5зюз310910 0.0 1019255
4 марта, чт
чт401:00+6з4119340 0.1 1018637
04:00+4зсз6119144 0.0 1015572
07:00+2зсз598872 0.0 1014644
10:00+2зсз5985100 0.1 1014794
13:00+3зсз4785100 0.2 1015595
16:00+2с4788100 0.2 1014579
19:000ссв5877100 0.3 1016759
22:00−1ссв497750 0.0 1018609
5 марта, пт
пт501:00−2с387925 0.0 1019485
04:00−2сз25750 0.0 1019196
07:00−1зсз37700 0.0 1021327
10:00+2сз46520 0.0 10211203
13:00+3сз57420 0.2 10231768
16:00+1ссз685026 0.2 10231552
19:00−2ссз387213 0.2 1026410
22:00−2з22700 0.0 102872
6 марта, сб
сб601:00−2з37632 0.0 1029259
04:00−2з37670 0.0 1029246
07:00−2зсз38730 0.0 1030331
10:00+1з47500 0.0 1030919
13:00+4з69361 0.0 10291447
16:00+3з6114890 0.0 10261226
19:00+1з6137694 0.0 1025918
22:00+1з71388100 0.1 10241067